Location: 22
(39.7117°N, 89.5929°W)
Time: 09:34:26
(UTC-05:00)

S-56A Canister/Altair - Pass Details

Date: 12 February 2023
Orbit: 638 x 2493 km, 38.9° (Epoch: 25 March)

Event Time Altitude Azimuth Distance (km) Brightness Sun altitude
Rises 10:50:01 0° 274° (W) 2,979 10.3 33.3°
Reaches altitude 10° 10:52:19 10° 272° (W) 2,026 9.6 33.5°
Maximum altitude 10:56:46 77° 187° (S) 673 8.1 33.8°
Drops below altitude 10° 11:01:44 10° 102° (ESE) 2,260 10.5 34.2°
Sets 11:04:27 0° 101° (E) 3,360 11.2 34.4°
